Regional Weather Roundup
Issued by NWS Northern Indiana

Home | Current Version | Previous Version | Text Only | Print | Product List | Glossary On
Versions: 1 2 3 4 5 6 7 8 9 10 11 12 13 14 15 16 17 18 19 20 21 22 23 24 25 26 27 28 29 30 31 32 33 34 35 36 37 38 39 40 41 42 43 44 45 46 47 48 49 50
000
ASUS43 KIWX 211110
RWRIWX

KIWX WEATHER ROUNDUP
NATIONAL WEATHER SERVICE NORTHERN INDIANA
600 AM EST WED FEB 21 2018

NOTE: "FAIR" INDICATES FEW OR NO CLOUDS BELOW 12,000 FEET WITH NO
SIGNIFICANT WEATHER AND/OR OBSTRUCTIONS TO VISIBILITY.

* THESE STATIONS ARE NOT UNDER NWS QUALITY CONTROL. THEY ALSO MAY NOT
  REPORT WEATHER SUCH AS PRECIPITATION OR FOG.

INZ001>027-211200-
NORTHERN INDIANA

CITY           SKY/WX    TMP DP  RH WIND       PRES   REMARKS
GARY*          CLOUDY    32  32 100 NW12G23   30.34R WCI  23
VALPARAISO     CLOUDY    32  29  88 N12G21    30.31R WCI  23
MICHIGAN CITY* LGT RAIN  32  32 100 N8        30.33R WCI  25
LAPORTE*       LGT SNOW  31  30  94 N13G20    30.32R WCI  22
SOUTH BEND     FRZ RAIN  31  28  89 NW14      30.30R WCI  21
GOSHEN         RAIN      34  31  88 NW9G18    30.25R WCI  27
MONTICELLO*    LGT RAIN  34  32  94 N17       30.28R WCI  23
LOGANSPORT*    LGT RAIN  36  34  93 N16       30.26R
ROCHESTER*     LGT RAIN N/A N/A N/A N12G17    30.27R
WARSAW*        RAIN      34  32  93 N9        30.25R WCI  26
AUBURN*        RAIN      37  36  93 NW14      30.23R
FORT WAYNE     LGT RAIN  41  39  93 NW12G17   30.23R
HUNTINGTON*    LGT RAIN  38  37  95 N10       30.23R
PERU/GRISSOM   RAIN      37  37 100 N13       30.23S
MARION*        CLOUDY    38  38  97 N8        30.23R

$$
INZ028>050-211200-
CENTRAL INDIANA

CITY           SKY/WX    TMP DP  RH WIND       PRES   REMARKS
LAFAYETTE      LGT RAIN  36  35  96 N15       30.27R
KOKOMO*        LGT RAIN  37  36  96 N16       30.23R
MUNCIE*        LGT RAIN  45  42  89 NW15      30.21R
INDIANAPOLIS   LGT RAIN  43  41  93 N10       30.21R

$$
MIZ043>046-050>051-056>058-064>065-071>073-077>080-211200-
SOUTHWEST LOWER MICHIGAN

CITY           SKY/WX    TMP DP  RH WIND       PRES   REMARKS
BATTLE CREEK   LGT RAIN  33  31  92 NW10      30.25R WCI  25
BENTON HARBOR  CLOUDY    32  27  81 VRB6      30.32R WCI  26
COLDWATER*     MIX PCPN  35  35 100 NW10      30.24R WCI  27
HILLSDALE*     RAIN      36  34  93 NW13G21   30.19R
HOLLAND        CLOUDY    32  27  81 N12       30.31R WCI  23
GRAND RAPIDS   CLOUDY    32  28  85 NW16      30.28R WCI  21
KALAMAZOO      FRZ RAIN  33  30  88 NW13      30.27R WCI  24
STURGIS*       LGT SNOW  34  32  94 N9        30.24R WCI  27
THREE RIVERS*  LGT SNOW  34  32  91 NW9       30.27R WCI  27

$$
OHZ001>008-015>018-024>025-211200-
NORTHWEST OHIO

CITY           SKY/WX    TMP DP  RH WIND       PRES   REMARKS
WAUSEON*       LGT RAIN  43  43 100 NW13      30.19R
DEFIANCE       LGT RAIN  43  40  89 NW16      30.21R
FINDLAY        LGT RAIN  53  49  86 NW12      30.15R
TOLEDO EXPRESS LGT RAIN  46  45  96 NW13      30.18R
TOLEDO METCALF LGT RAIN  49  47  93 NW12      30.16R
LIMA           LGT RAIN  51  51 100 NW15      30.18R

$$
AND FOR LAKE MICHIGAN COASTAL AND OPEN LAKE BUOY OBSERVATIONS

STATION/POSITION TEMP    WIND        PRES    VSBY  WAVE
                 AIR SEA DIR/SP/G                  HT/PER
                 (F)     (DEG/KT/KT) (MB)    (MI)  (FT/S)
CALUMET HARBOR    31     330/ 11/ 18 1026.8R
MICHIGAN CITY     31     320/  9/ 10   N/A
BURNS HARBOR      32     350/ 14/ 18 1027.4R

$$
&&



USA.gov is the U.S. government's official web portal to all federal, state and local government web resources and services.